TimeCDT,TemperatureF,Dew PointF,Humidity,Sea Level PressureIn,VisibilityMPH,Wind Direction,Wind SpeedMPH,Gust SpeedMPH,PrecipitationIn,Events,Conditions,WindDirDegrees,DateUTC
12:15 AM,69.8,59.0,68,29.68,10.0,Calm,Calm,-,N/A,,Mostly Cloudy,0,2013-09-01 05:15:00
12:35 AM,66.2,60.8,83,29.71,10.0,West,15.0,21.9,N/A,,Overcast,280,2013-09-01 05:35:00
12:55 AM,66.2,59.0,78,29.70,10.0,WSW,3.5,-,N/A,,Mostly Cloudy,240,2013-09-01 05:55:00
1:15 AM,66.2,60.8,83,29.70,10.0,South,4.6,-,N/A,,Overcast,180,2013-09-01 06:15:00
1:35 AM,66.2,60.8,83,29.71,10.0,South,8.1,-,N/A,,Scattered Clouds,190,2013-09-01 06:35:00
1:55 AM,68.0,60.8,78,29.70,10.0,WSW,5.8,-,N/A,,Scattered Clouds,240,2013-09-01 06:55:00
2:15 AM,66.2,59.0,78,29.70,10.0,WSW,4.6,-,N/A,,Clear,250,2013-09-01 07:15:00
2:35 AM,66.2,59.0,78,29.69,10.0,SSW,3.5,-,N/A,,Clear,200,2013-09-01 07:35:00
2:55 AM,64.4,57.2,77,29.69,10.0,Calm,Calm,-,N/A,,Clear,0,2013-09-01 07:55:00
3:15 AM,62.6,59.0,88,29.68,10.0,Calm,Calm,-,N/A,,Scattered Clouds,0,2013-09-01 08:15:00
3:35 AM,66.2,60.8,83,29.67,10.0,South,4.6,-,N/A,,Partly Cloudy,180,2013-09-01 08:35:00
3:55 AM,66.2,60.8,83,29.67,10.0,SSW,5.8,-,N/A,,Mostly Cloudy,200,2013-09-01 08:55:00
4:15 AM,66.2,60.8,83,29.66,10.0,SSW,6.9,-,N/A,,Mostly Cloudy,200,2013-09-01 09:15:00
4:35 AM,66.2,60.8,83,29.67,10.0,SW,10.4,-,N/A,,Mostly Cloudy,220,2013-09-01 09:35:00
4:55 AM,66.2,60.8,83,29.66,10.0,SW,9.2,-,N/A,,Scattered Clouds,230,2013-09-01 09:55:00
5:15 AM,66.2,60.8,83,29.66,10.0,SW,10.4,-,N/A,,Scattered Clouds,220,2013-09-01 10:15:00
5:35 AM,66.2,60.8,83,29.67,10.0,SW,10.4,-,N/A,,Mostly Cloudy,230,2013-09-01 10:35:00
5:55 AM,66.2,60.8,83,29.67,10.0,SW,12.7,-,N/A,,Mostly Cloudy,230,2013-09-01 10:55:00
6:15 AM,66.2,60.8,83,29.68,10.0,WSW,17.3,21.9,N/A,,Overcast,250,2013-09-01 11:15:00
6:35 AM,64.4,60.8,88,29.68,10.0,West,13.8,20.7,N/A,,Overcast,260,2013-09-01 11:35:00
6:55 AM,64.4,60.8,88,29.68,10.0,WSW,17.3,20.7,N/A,,Overcast,250,2013-09-01 11:55:00
7:15 AM,64.4,60.8,88,29.68,10.0,WSW,15.0,19.6,N/A,,Overcast,250,2013-09-01 12:15:00
7:35 AM,64.4,59.0,83,29.69,10.0,WSW,13.8,-,N/A,,Overcast,250,2013-09-01 12:35:00
7:55 AM,64.4,59.0,83,29.70,10.0,West,16.1,19.6,N/A,,Overcast,270,2013-09-01 12:55:00
8:15 AM,64.4,60.8,88,29.70,10.0,West,15.0,-,N/A,,Overcast,270,2013-09-01 13:15:00
8:35 AM,64.4,59.0,83,29.71,10.0,West,11.5,19.6,N/A,,Overcast,270,2013-09-01 13:35:00
8:55 AM,64.4,59.0,83,29.71,10.0,West,17.3,20.7,N/A,,Overcast,270,2013-09-01 13:55:00
9:15 AM,64.4,59.0,83,29.71,10.0,West,15.0,-,N/A,,Overcast,270,2013-09-01 14:15:00
9:35 AM,64.4,59.0,83,29.72,10.0,West,13.8,20.7,N/A,,Overcast,280,2013-09-01 14:35:00
9:55 AM,64.4,57.2,77,29.73,10.0,WNW,12.7,18.4,N/A,,Overcast,290,2013-09-01 14:55:00
10:15 AM,64.4,57.2,77,29.73,10.0,WNW,11.5,17.3,N/A,,Overcast,290,2013-09-01 15:15:00
10:35 AM,64.4,57.2,77,29.73,10.0,WNW,12.7,18.4,N/A,,Overcast,290,2013-09-01 15:35:00
10:55 AM,64.4,57.2,77,29.75,10.0,WNW,9.2,-,N/A,,Overcast,290,2013-09-01 15:55:00
11:15 AM,64.4,57.2,77,29.75,10.0,WNW,6.9,-,N/A,,Overcast,290,2013-09-01 16:15:00
11:35 AM,64.4,57.2,77,29.75,10.0,WNW,10.4,-,N/A,,Overcast,290,2013-09-01 16:35:00
11:55 AM,66.2,57.2,73,29.76,10.0,WNW,11.5,-,N/A,,Overcast,300,2013-09-01 16:55:00
12:15 PM,66.2,59.0,78,29.76,10.0,WNW,10.4,20.7,N/A,,Overcast,300,2013-09-01 17:15:00
12:35 PM,66.2,57.2,73,29.76,10.0,WNW,16.1,-,N/A,,Overcast,290,2013-09-01 17:35:00
12:55 PM,68.0,60.8,78,29.77,10.0,WNW,15.0,19.6,N/A,,Overcast,300,2013-09-01 17:55:00
1:15 PM,66.2,57.2,73,29.77,10.0,NNW,15.0,18.4,N/A,,Overcast,330,2013-09-01 18:15:00
1:35 PM,69.8,59.0,68,29.77,10.0,WNW,12.7,-,N/A,,Mostly Cloudy,300,2013-09-01 18:35:00
1:55 PM,69.8,57.2,64,29.78,10.0,NNW,13.8,18.4,N/A,,Mostly Cloudy,340,2013-09-01 18:55:00
2:15 PM,69.8,57.2,64,29.78,10.0,NW,10.4,18.4,N/A,,Mostly Cloudy,310,2013-09-01 19:15:00
2:35 PM,69.8,57.2,64,29.78,10.0,WNW,11.5,-,N/A,,Mostly Cloudy,300,2013-09-01 19:35:00
2:55 PM,69.8,57.2,64,29.78,10.0,NNW,10.4,-,N/A,,Overcast,340,2013-09-01 19:55:00
3:15 PM,69.8,57.2,64,29.78,10.0,NW,10.4,-,N/A,,Overcast,320,2013-09-01 20:15:00
3:35 PM,68.0,57.2,68,29.78,10.0,NW,8.1,-,N/A,,Overcast,310,2013-09-01 20:35:00
3:55 PM,68.0,57.2,68,29.78,10.0,NW,5.8,-,N/A,,Overcast,310,2013-09-01 20:55:00
4:15 PM,69.8,57.2,64,29.79,10.0,WNW,6.9,-,N/A,,Overcast,300,2013-09-01 21:15:00
4:35 PM,68.0,57.2,68,29.79,10.0,NW,5.8,-,N/A,,Overcast,320,2013-09-01 21:35:00
4:55 PM,68.0,57.2,68,29.79,10.0,WNW,5.8,-,N/A,,Overcast,290,2013-09-01 21:55:00
5:15 PM,66.2,57.2,73,29.80,10.0,NW,6.9,-,N/A,,Mostly Cloudy,320,2013-09-01 22:15:00
5:35 PM,64.4,59.0,83,29.80,10.0,NW,6.9,-,N/A,,Mostly Cloudy,320,2013-09-01 22:35:00
5:55 PM,64.4,60.8,88,29.81,10.0,NNW,11.5,17.3,N/A,,Overcast,330,2013-09-01 22:55:00
6:15 PM,62.6,59.0,88,29.82,10.0,NW,10.4,-,N/A,,Overcast,320,2013-09-01 23:15:00
6:35 PM,62.6,57.2,82,29.83,6.0,NNW,17.3,23.0,N/A,,Overcast,330,2013-09-01 23:35:00
6:55 PM,60.8,57.2,88,29.84,4.0,NNW,11.5,17.3,N/A,,Mostly Cloudy,330,2013-09-01 23:55:00
7:15 PM,60.8,55.4,82,29.85,9.0,NW,10.4,-,N/A,,Overcast,320,2013-09-02 00:15:00
7:35 PM,60.8,55.4,82,29.86,10.0,NW,12.7,-,N/A,,Overcast,320,2013-09-02 00:35:00
7:55 PM,60.8,55.4,82,29.86,10.0,NW,9.2,17.3,N/A,,Overcast,320,2013-09-02 00:55:00
8:15 PM,60.8,55.4,82,29.87,10.0,NNW,10.4,-,N/A,,Overcast,330,2013-09-02 01:15:00
8:35 PM,60.8,53.6,77,29.88,7.0,NNW,6.9,-,N/A,,Overcast,330,2013-09-02 01:35:00
8:55 PM,59.0,53.6,82,29.88,3.0,ENE,8.1,-,N/A,,Overcast,60,2013-09-02 01:55:00
9:15 PM,59.0,55.4,88,29.89,3.0,North,8.1,-,N/A,,Overcast,350,2013-09-02 02:15:00
9:35 PM,57.2,53.6,88,29.90,3.0,NNE,5.8,-,N/A,,Overcast,20,2013-09-02 02:35:00
9:55 PM,57.2,53.6,88,29.90,5.0,North,11.5,16.1,N/A,,Mostly Cloudy,10,2013-09-02 02:55:00
10:15 PM,57.2,53.6,88,29.91,8.0,North,3.5,-,N/A,,Overcast,360,2013-09-02 03:15:00
10:35 PM,57.2,53.6,88,29.91,7.0,NNW,8.1,-,N/A,,Mostly Cloudy,340,2013-09-02 03:35:00
10:55 PM,55.4,51.8,88,29.92,10.0,North,6.9,-,N/A,,Overcast,10,2013-09-02 03:55:00
11:15 PM,55.4,51.8,88,29.92,5.0,North,5.8,-,N/A,,Overcast,350,2013-09-02 04:15:00
11:35 PM,55.4,51.8,88,29.93,3.0,NNW,4.6,-,N/A,,Overcast,340,2013-09-02 04:35:00
11:55 PM,55.4,51.8,88,29.93,5.0,NNW,6.9,-,N/A,,Overcast,340,2013-09-02 04:55:00